Location: *
(41.7492°S, 135.4150°W)
Time: 22:58:34
(UTC+00:00)

METEOR M2 - Pass Details

Date: 07 July 2022
Orbit: 818 x 827 km, 98.4° (Epoch: 17 August)

Event Time Altitude Azimuth Distance (km) Brightness Sun altitude
Rises 15:27:42 0° 3° (N) 3,344 ? -11.1°
Reaches altitude 10° 15:30:05 10° 358° (N) 2,419 ? -10.7°
Maximum altitude 15:35:21 55° 280° (W) 987 ? -9.7°
Drops below altitude 10° 15:40:40 10° 202° (SSW) 2,447 ? -8.8°
Sets 15:43:06 0° 197° (SSW) 3,387 ? -8.4°
